Regional Weather Roundup
Issued by NWS

Home | Current Version | Previous Version | Graphics & Text | Print | Product List | Glossary On
Versions: 1 2 3 4 5 6 7 8 9 10 11 12 13 14 15 16 17 18 19 20 21 22 23 24 25 26 27 28 29 30 31 32 33 34 35 36 37 38 39 40 41 42 43 44 45 46 47 48 49 50
000
ASUS43 KMKX 062221
RWRWI

WISCONSIN REGIONAL WEATHER ROUNDUP
NATIONAL WEATHER SERVICE MILWAUKEE/SULLIVAN WI
500 PM CDT MON JUL 06 2015

NOTE: "FAIR" INDICATES FEW OR NO CLOUDS BELOW 12,000 FEET WITH NO
SIGNIFICANT WEATHER AND/OR OBSTRUCTIONS TO VISIBILITY.

WIZ001-002-006>008-014>016-023>028-062300-
NORTHWEST WISCONSIN

CITY           SKY/WX    TMP DP  RH WIND       PRES   REMARKS
SUPERIOR ARPT  CLOUDY    66  57  72 CALM      29.92F HAZE
ASHLAND        CLOUDY    63  61  93 N6        29.92S FOG
HAYWARD        CLOUDY    63  58  83 N7        29.94R HAZE
SIREN          PTSUNNY   68  56  66 N10       29.94R HAZE
CUMBERLAND     CLOUDY    64  57  77 N10G20    29.93S HAZE
RICE LAKE      CLOUDY    64  57  78 N10G18    29.94S HAZE
CHETEK         CLOUDY    64  59  84 N12G22    29.92R FOG
LADYSMITH      CLOUDY    64  58  82 N16G22    29.91R HAZE
EAU CLAIRE     CLOUDY    67  59  75 N10G18    29.89R HAZE
MENOMONIE      CLOUDY    67  58  73 N21       29.92R HAZE
NEW RICHMOND     N/A     67  59  76 N13       29.94S HAZE
OSCEOLA        MOSUNNY   69  60  72 N9G16     29.97R HAZE
$$

WIZ003>005-009-010-017-018-062300-
NORTH CENTRAL WISCONSIN

CITY           SKY/WX    TMP DP  RH WIND       PRES   REMARKS
MANITOWISH WTR RAIN      57  57 100 N8        29.90R
ARBOR VITAE    LGT RAIN  59  58  94 N9G16     29.87F
WOODRUFF       LGT RAIN  59  58  94 N9G16     29.87F
RHINELANDER    LGT RAIN  59  57  93 N9G20     29.86R FOG
EAGLE RIVER    RAIN      57  57 100 N12G20    29.86S
LAND O LAKES   RAIN      58  57  96 N9G17     29.89S
PHILLIPS       LGT RAIN  59  56  92 N14       29.88R
TOMAHAWK       LGT RAIN  59  57  91 N10G23    29.85R
MEDFORD        DRIZZLE   61  59  93 N13G23    29.86R
MERRILL        LGT RAIN  63  63 100 N15G28    29.81R
$$

WIZ029-030-035-036-043>047-062300-
CENTRAL WISCONSIN

CITY           SKY/WX    TMP DP  RH WIND       PRES   REMARKS
WAUSAU         LGT RAIN  66  64  93 NW15G26   29.80R FOG
MOSINEE        CLOUDY    72  72 100 SW8G17    29.81R
MARSHFIELD     CLOUDY    67  63  87 N16G25    29.83R
STEVENS POINT  LGT RAIN  69  67  94 W13G24    29.81S
WAUPACA        LGT RAIN  79  72  79 S12       29.78S HX  82
WAUTOMA        CLOUDY    80  69  69 SW14      29.80F HX  83
WISC RAPIDS    LGT RAIN  73  71  93 W6        29.82S
CAMP DOUGLAS   CLOUDY    73  73 100 SW14      29.81F
$$

WIZ011>013-019>022-031-037>040-048>050-062300-
NORTHEAST WISCONSIN

CITY           SKY/WX    TMP DP  RH WIND       PRES   REMARKS
ANTIGO         LGT RAIN  71  70  96 SW8       29.79F
SHAWANO        LGT RAIN  77  71  82 SE5       29.77F
OCONTO         CLOUDY    77  76  96 CALM      29.76F
STURGEON BAY   CLOUDY    66  63  88 SE8       29.81F
GREEN BAY      CLOUDY    80  70  71 SW13      29.78F HX  83
MANITOWOC      CLOUDY    72  68  87 MISG      29.80F
APPLETON       PTSUNNY   79  66  65 S13G21    29.80F HX  81
CLINTONVILLE   LGT RAIN  75  70  83 S10       29.76F
OSHKOSH        CLOUDY    80  70  71 SW12G22   29.79F HX  83
$$

WIZ032>034-041-042-053>061-062300-
SOUTHWEST WISCONSIN

CITY           SKY/WX    TMP DP  RH WIND       PRES   REMARKS
LA CROSSE      LGT RAIN  70  67  90 NW18      29.82R
SPARTA         LGT RAIN  73  70  92 CALM      29.82F
VIROQUA        CLOUDY    73  73  99 SW9       29.83F
BOSCOBEL       PTSUNNY   79  71  76 SW7       29.81F HX  82
PRAIRIE DU CHI CLOUDY    80  69  69 S9        29.81F HX  82
PLATTEVILLE    PTSUNNY   77  71  81 SW15      29.85S
$$

WIZ056-057-062-063-064-067-068-062300-
SOUTH CENTRAL WISCONSIN

CITY           SKY/WX    TMP DP  RH WIND       PRES   REMARKS
REEDSBURG      CLOUDY    76  72  85 SW7       29.82F
BARABOO/DELLS  CLOUDY    79  67  67 W8        29.82F HX  81
LONE ROCK      CLOUDY    80  70  71 SW8       29.82F HX  83
MINERAL POINT  PTSUNNY   79  70  73 SW9       29.86S HX  81
MADISON        CLOUDY    79  69  71 SW10G18   29.82F HX  81
MIDDLETON      PTSUNNY   80  69  69 W10G16    29.84F HX  83
WATERTOWN      CLOUDY    79  74  84 S13       29.83F HX  82
MONROE         PTSUNNY   77  72  83 SW12G17   29.85F
JANESVILLE     MOSUNNY   79  70  73 SW10      29.85F HX  81
$$

WIZ051-052-058>065-066-070>072-062300-
SOUTHEAST WISCONSIN

CITY           SKY/WX    TMP DP  RH WIND       PRES   REMARKS
MILWAUKEE      CLOUDY    81  67  62 SW17G25   29.84S HX  83
WAUKESHA       PTSUNNY   75  68  78 S8        29.86S
MILWAUKEE/TIMM PTSUNNY   79  66  65 S10       29.84F HX  81
RACINE         CLOUDY    75  69  81 S8        29.87S
BURLINGTON     CLOUDY    74  67  79 SW9       29.86S
KENOSHA        CLOUDY    75  69  81 SW9       29.86S
FOND DU LAC    CLOUDY    81  71  71 S14G24    29.81F HX  85
SHEBOYGAN      CLOUDY    77  71  82 S12       29.81F
WEST BEND      CLOUDY    79  70  73 SW10      29.83F HX  81
JUNEAU         CLOUDY    78  69  75 S14G21    29.84F HX  80
$$

LSZ147-162-062300-
LAKE SUPERIOR

STATION/POSITION TIME  TEMP    WIND        PRES    WAVE
                       AIR SEA DIR/SP/G            HT/PER
                 (UTC) (F)     (DEG/KT/KT) (MB)    (FT/S)
W MID LAKE BUOY  2150   49 39  300/  6/  6 1012.9R   0
DEVILS ISLAND    2200   60     250/  3/  5 1013.1F
PORT WING        2200   63     280/  4/  5 1013.2F
SAXON HARBOR     2100   59        CALM     1012.5
$$

LMZ867-665-643>646-062300-
LAKE MICHIGAN

STATION/POSITION TIME  TEMP    WIND        PRES    WAVE
                       AIR SEA DIR/SP/G            HT/PER
                 (UTC) (F)     (DEG/KT/KT) (MB)    (FT/S)
CHAMBERS ISLAND  2100   72     150/  5/ 10 1008.8
N MID LAKE BUOY  2150   60 56  210/ 17/ 19 1008.6F   4/ 5
NORTHPORT PIER   2100   68     160/  7/ 12 1008.8F
SISTER BAY       2114   70     180/ 16/ 20   N/A
ALGOMA LAKESHORE 2011          210/ 13/ 15   N/A
KEWAUNEE LAKESHO 2100   60     180/ 12/ 16 1009.2F
SHEBOYGAN LAKESH 2200   71     190/ 13/ 13 1009.4F
PORT WASHINGTON  2100   68     190/  5/ 11 1010.8
ATWATER BUOY     2200   65 59  170/ 10/ 16 1011.4F
MILWAUKEE LAKESH 2200   78     210/ 14/ 17   N/A
KENOSHA   LAKESH 2200   70     180/  9/ 12 1010.5F
$$

TC  - TEMPERATURE IN CELSIUS
VSB - VISIBILITY IN STATUTE MILES
WCI - WIND CHILL INDEX
HX  - HEAT INDEX



USA.gov is the U.S. government's official web portal to all federal, state and local government web resources and services.